{"data":{"norad_id":45212,"intl_designator":"2020-012AL","name":"STARLINK-1231","alt_names":[],"object_type":"PAYLOAD","status":"ACTIVE","operator":null,"country":"US","launch_date":"2020-02-17","launch_site_code":"AFETR","launch_vehicle":null,"mission":null,"orbit_class":"UNKNOWN","rcs_meters":null,"size_class":null,"mass_kg":null,"dimensions":null,"purposes":["comms"],"wikipedia_slug":null,"has_3d_model":false,"image_url":null,"decayed_at":null,"tle_current":{"epoch":"2026-09-20T04:35:00.214080Z","epoch_age_seconds":41239,"freshness":"FRESH","line1":"1 45212U 20012AL  26263.19097470  .00030820  00000+0  92584-3 0  9998","line2":"2 45212  53.0343 192.6964 0003719  57.0861 303.0497 15.34177841364963","mean_motion":15.34177841,"eccentricity":0.0003719,"inclination_deg":53.0343,"raan_deg":192.6964,"arg_perigee_deg":57.0861,"mean_anomaly_deg":303.0497,"bstar":0.00092584,"rev_number":36496,"period_min":93.861347851393,"perigee_km":460.81926917013,"apogee_km":465.90797733371,"semimajor_km":6841.5006232519,"source":"CELESTRAK","updated_at":"2026-09-20T09:00:38.227441Z"}}}